Regional Weather Roundup
Issued by NWS Sioux Falls, SD

Home | Current Version | Previous Version | Text Only | Print | Product List | Glossary On
Versions: 1 2 3 4 5 6 7 8 9 10 11 12 13 14 15 16 17 18 19 20 21 22 23 24 25 26 27 28 29 30 31 32 33 34 35 36 37 38 39 40 41 42 43 44 45 46 47 48 49 50
000
ASUS43 KFSD 251310
RWRFSD

WEATHER ROUNDUP FOR SE SOUTH DAKOTA/SW MINNESOTA/NW IOWA
NATIONAL WEATHER SERVICE SIOUX FALLS SD
800 AM CDT TUE JUL 25 2017

NOTE: "FAIR" INDICATES FEW OR NO CLOUDS BELOW 12,000 FEET WITH NO
SIGNIFICANT WEATHER AND OR OBSTRUCTIONS TO VISIBILITY.


SDZ038>040-050-052>070-251400-
SOUTHEAST SOUTH DAKOTA

CITY           SKY/WX    TMP DP  RH WIND       PRES   REMARKS
BROOKINGS      SUNNY     70  66  87 S15       29.91R
CHAMBERLAIN    SUNNY     81  64  56 W3        29.85R
HURON          MOSUNNY   73  69  87 S12       29.83R
MADISON        FAIR      70  70 100 S16       29.90S
MITCHELL       SUNNY     76  69  79 S9        29.85R
SIOUX FALLS    CLOUDY    73  69  87 S13       29.92S
WINNER         FAIR      80  60  50 SW18G28   29.83S
YANKTON        SUNNY     79  69  71 S8        29.91R
$$

MNZ071-072-080-081-089-090-097-098-251400-
SOUTHWEST MINNESOTA

CITY           SKY/WX    TMP DP  RH WIND       PRES   REMARKS
FAIRMONT       MOSUNNY   67  64  90 S15G22    30.00F
JACKSON        SUNNY     68  63  83 S13G22    30.00S
LUVERNE        CLOUDY    68  63  83 S9G17     29.96S
MARSHALL       MOSUNNY   72  65  78 S17G23    29.91R HAZE
MONTEVIDEO     SUNNY     72  66  83 S14G20    29.90F
PIPESTONE      SUNNY     72  64  78 S18G25    29.93F
REDWOOD FALLS  CLOUDY    68  64  87 SE14      29.93R
TRACY          MOSUNNY   70  66  86 S17G29    29.92S
WINDOM         PTSUNNY   68  64  88 SE14      29.98S
WORTHINGTON    CLOUDY    68  64  87 S16       29.98R
$$

IAZ001>003-012>014-020>022-031-032-NEZ013-014-SDZ071-251400-
NORTHWEST IOWA

CITY           SKY/WX    TMP DP  RH WIND       PRES   REMARKS
CHEROKEE       SUNNY     71  66  83 S10       30.00S
DENISON        SUNNY     72  64  78 S8G14     30.05S
ESTHERVILLE    MOSUNNY   67  66  97 S18G25    30.00F
ORANGE CITY    SUNNY     72  66  83 S13G21    29.97F
SHELDON        MOSUNNY   70  64  83 S15G32    29.96S
SIOUX CITY     SUNNY     73  68  84 SE10      29.97S
SPENCER        SUNNY     70  64  81 S20G25    30.00F
STORM LAKE     SUNNY     68  64  88 S12G21    30.02S
$$

ABBREVIATIONS USED IN REMARKS
   TC - TEMPERATURE IN CELSIUS
  WCI - WIND CHILL INDEX
   HX - HEAT INDEX
  VSB - VISIBILITY




USA.gov is the U.S. government's official web portal to all federal, state and local government web resources and services.